EW8242 Weather Reports


Display with metric or nautical units.
time (UTC)temp
F
wind
direction
speed
MPH
gust
MPH
rain 1hr
in
rain 24hr
in
rain mn
in
humidity
%
barometer
mb
20200928053536 39 0 0.0 0.0 0.00 0.00 0.00 99 998.1
20200928052635 40 1 0.0 2.0 0.00 0.00 0.00 99 998.0
20200928051736 39 0 0.0 0.0 0.00 0.00 0.00 99 997.9
20200928050839 39 0 0.0 0.0 0.00 0.00 0.00 99 998.0
20200928045934 38 0 0.0 0.0 0.00 0.00 0.00 99 997.9
20200928045034 38 0 0.0 0.0 0.00 0.00 0.00 99 997.8
20200928044134 38 1 0.0 2.0 0.00 0.00 0.00 99 997.9
20200928043237 38 0 0.0 0.0 0.00 0.00 0.00 99 997.9
20200928042339 38 0 0.0 0.0 0.00 0.00 0.00 99 998.1
20200928041434 39 1 0.0 3.0 0.00 0.00 0.00 99 998.1
20200928040539 38 0 0.0 0.0 0.00 0.00 0.00 99 998.1
20200928035634 39 0 0.0 0.0 0.00 0.00 0.00 99 998.2
20200928034735 39 0 0.0 0.0 0.00 0.00 0.00 99 998.2
20200928033834 39 0 0.0 0.0 0.00 0.00 0.00 99 998.4
20200928032934 39 1 0.0 3.0 0.00 0.00 0.00 99 998.5
20200928032036 39 0 0.0 0.0 0.00 0.00 0.00 99 998.7
20200928031134 40 1 0.0 2.0 0.00 0.00 0.00 99 998.6
20200928030235 40 1 0.0 3.0 0.00 0.00 0.00 99 998.9
20200928025334 40 0 0.0 0.0 0.00 0.00 0.00 99 999.1
20200928024434 40 0 0.0 0.0 0.00 0.00 0.00 99 999.0
20200928023535 40 1 0.0 2.0 0.00 0.00 0.00 99 999.3
20200928022633 40 0 0.0 0.0 0.00 0.00 0.00 99 999.5
20200928021736 40 0 0.0 0.0 0.00 0.00 0.00 99 999.4
20200928020834 41 0 0.0 0.0 0.00 0.00 0.00 99 999.7
20200928015935 40 0 0.0 0.0 0.00 0.00 0.00 99 999.7
20200928015034 40 0 0.0 0.0 0.00 0.00 0.00 99 999.6
20200928014133 40 0 0.0 0.0 0.00 0.00 0.00 99 999.3
20200928013234 40 0 0.0 0.0 0.00 0.00 0.00 99 999.5
20200928012333 41 46 0.0 2.0 0.00 0.00 0.00 99 999.3
20200928011434 40 46 0.0 2.0 0.00 0.00 0.00 99 999.2
20200928010534 40 0 0.0 0.0 0.00 0.00 0.00 99 999.2
20200928005633 40 0 0.0 0.0 0.00 0.00 0.00 99 999.0
20200928004736 41 0 0.0 0.0 0.00 0.00 0.00 99 999.2
20200928003834 41 46 0.0 2.0 0.00 0.00 0.00 99 998.9
20200928002935 41 0 0.0 0.0 0.00 0.00 0.00 99 998.9
20200928002033 41 0 0.0 0.0 0.00 0.00 0.00 99 998.8
20200928001133 41 23 0.0 2.0 0.00 0.00 0.00 99 999.2
20200928000238 41 5 0.0 2.0 0.00 0.00 0.00 98 999.1
20200927235334 41 0 0.0 0.0 0.00 0.00 0.00 99 999.4
20200927234433 41 0 0.0 0.0 0.00 0.00 0.00 98 999.4
20200927233533 41 0 0.0 0.0 0.00 0.00 0.00 98 999.6
20200927232633 41 1 0.0 2.0 0.00 0.00 0.00 97 999.5
20200927231733 42 1 0.0 2.0 0.00 0.00 0.00 97 999.7
20200927230833 42 0 0.0 0.0 0.00 0.00 0.00 97 999.8
20200927225933 42 1 0.0 2.0 0.00 0.00 0.00 96 1000.0
20200927225033 42 0 0.0 0.0 0.00 0.00 0.00 96 1000.0
20200927224133 42 1 0.0 2.0 0.00 0.00 0.00 96 1000.2
20200927223233 42 10 0.0 2.0 0.00 0.00 0.00 95 1000.3
20200927222338 43 3 0.0 4.0 0.00 0.00 0.00 94 1000.3
20200927221437 43 1 0.0 4.0 0.00 0.00 0.00 93 1000.5
20200927220535 43 0 0.0 0.0 0.00 0.00 0.00 92 1000.7
20200927215634 44 0 0.0 0.0 0.00 0.00 0.00 92 1000.8
20200927214734 44 5 0.0 5.0 0.00 0.00 0.00 93 1001.0
20200927213837 44 6 2.0 4.0 0.00 0.00 0.00 92 1001.0
20200927212934 44 4 0.0 4.0 0.00 0.00 0.00 91 1001.1
20200927212033 45 2 2.0 4.0 0.00 0.00 0.00 90 1001.0
20200927211133 45 6 2.0 4.0 0.00 0.00 0.00 88 1000.9
20200927210240 46 352 2.0 3.0 0.00 0.00 0.00 86 1000.8
20200927205332 47 358 2.0 4.0 0.00 0.00 0.00 86 1001.0
20200927204434 47 1 2.0 3.0 0.00 0.00 0.00 84 1001.0
20200927203539 48 4 1.0 4.0 0.00 0.00 0.00 83 1001.1
20200927202633 48 357 2.0 4.0 0.00 0.00 0.00 82 1001.1
20200927201732 48 352 1.0 5.0 0.00 0.00 0.00 82 1001.1
20200927200835 48 340 2.0 4.0 0.00 0.00 0.00 84 1001.0
20200927195934 47 1 2.0 3.0 0.00 0.00 0.00 85 1001.1
20200927195032 48 1 0.0 2.0 0.00 0.00 0.00 83 1001.0
20200927194135 49 356 0.0 4.0 0.00 0.00 0.00 78 1001.1
20200927193233 49 1 2.0 3.0 0.00 0.00 0.00 77 1001.0
20200927192333 50 331 0.0 2.0 0.00 0.00 0.00 75 1001.0
20200927191432 50 343 0.0 2.0 0.00 0.00 0.00 74 1001.1
20200927190534 50 5 0.0 4.0 0.00 0.00 0.00 73 1000.9
20200927185633 51 328 0.0 2.0 0.00 0.00 0.00 73 1000.8
20200927184733 51 33 0.0 5.0 0.00 0.00 0.00 72 1000.7
20200927183836 51 23 3.0 5.0 0.00 0.00 0.00 73 1000.7
20200927182932 51 34 0.0 4.0 0.00 0.00 0.00 74 1000.5
20200927182033 50 15 2.0 4.0 0.00 0.00 0.00 78 1000.3
20200927181133 49 46 2.0 6.0 0.00 0.00 0.00 81 1000.3
20200927180232 48 12 2.0 4.0 0.00 0.00 0.00 80 1000.2
20200927175332 49 9 0.0 4.0 0.00 0.00 0.00 77 999.6
20200927174432 49 2 0.0 6.0 0.00 0.00 0.00 75 999.6
20200927173532 50 336 1.0 4.0 0.00 0.00 0.00 76 999.7
20200927172633 49 13 2.0 4.0 0.00 0.00 0.00 78 999.4
20200927171732 50 0 0.0 0.0 0.00 0.00 0.00 76 999.4
20200927170833 51 0 0.0 0.0 0.00 0.00 0.00 72 999.3
20200927165935 52 46 0.0 2.0 0.00 0.00 0.00 68 999.2
20200927165036 54 22 0.0 1.0 0.00 0.00 0.00 62 999.3
20200927164139 56 1 0.0 1.0 0.00 0.00 0.00 55 999.0
20200927163238 57 338 0.0 4.0 0.00 0.00 0.00 55 999.0
20200927162332 59 325 0.0 2.0 0.00 0.00 0.00 50 998.8
20200927161432 61 313 0.0 4.0 0.00 0.00 0.00 42 998.8
20200927160534 63 7 0.0 4.0 0.00 0.00 0.00 40 998.6
20200927155634 61 325 0.0 4.0 0.00 0.00 0.00 43 998.6
20200927154734 63 332 1.0 6.0 0.00 0.00 0.00 41 998.4
20200927153833 63 317 0.0 8.0 0.00 0.00 0.00 40 998.5
20200927152932 64 287 0.0 8.0 0.00 0.00 0.00 41 998.6
20200927152032 65 332 2.0 4.0 0.00 0.00 0.00 38 998.6
20200927151132 65 314 1.0 4.0 0.00 0.00 0.00 39 998.5
20200927150237 64 279 0.0 5.0 0.00 0.00 0.00 39 998.7
20200927145334 64 299 0.0 6.0 0.00 0.00 0.00 39 998.5
20200927144433 65 295 0.0 5.0 0.00 0.00 0.00 37 998.7
20200927143531 65 325 0.0 4.0 0.00 0.00 0.00 42 998.5
20200927142631 61 303 0.0 3.0 0.00 0.00 0.00 49 998.7
20200927141732 60 300 1.0 3.0 0.00 0.00 0.00 52 998.9
20200927140832 59 239 1.0 4.0 0.00 0.00 0.00 51 998.5
20200927135936 60 235 3.0 5.0 0.00 0.00 0.00 49 998.8
20200927135032 63 254 3.0 5.0 0.00 0.00 0.00 43 998.7
20200927134132 62 351 1.0 2.0 0.00 0.00 0.00 49 998.8
20200927133234 59 5 0.0 3.0 0.00 0.00 0.00 53 999.0
20200927132338 58 14 0.0 5.0 0.00 0.00 0.00 52 998.9
20200927131434 58 14 1.0 4.0 0.00 0.00 0.00 53 999.2
20200927130531 58 52 2.0 6.0 0.00 0.00 0.00 53 998.9
20200927125631 59 59 3.0 6.0 0.00 0.00 0.00 50 999.0
20200927124736 60 28 3.0 7.0 0.00 0.00 0.00 50 999.1
20200927123834 62 8 2.0 11.0 0.00 0.00 0.00 43 999.0
20200927122932 62 351 5.0 8.0 0.00 0.00 0.00 47 999.4
20200927122031 59 340 0.0 3.0 0.00 0.00 0.00 53 999.3
20200927121136 58 239 0.0 2.0 0.00 0.00 0.00 52 999.4
20200927120235 58 238 0.0 4.0 0.00 0.00 0.00 53 999.4
20200927115331 58 236 0.0 5.0 0.00 0.00 0.00 52 999.4
20200927114432 59 226 2.0 8.0 0.00 0.00 0.00 51 999.5
20200927113531 60 149 2.0 8.0 0.00 0.00 0.00 49 999.4
20200927112632 58 34 2.0 5.0 0.00 0.00 0.00 52 999.4
20200927111731 58 59 3.0 6.0 0.00 0.00 0.00 53 999.2
20200927110833 59 34 4.0 5.0 0.00 0.00 0.00 52 999.2
20200927105931 60 142 1.0 6.0 0.00 0.00 0.00 50 999.4
20200927105037 59 83 4.0 5.0 0.00 0.00 0.00 50 999.5
20200927104131 60 77 2.0 6.0 0.00 0.00 0.00 50 999.5
20200927103233 61 85 1.0 3.0 0.00 0.00 0.00 42 999.7
20200927102331 58 252 1.0 3.0 0.00 0.00 0.00 45 999.5
20200927101434 57 193 1.0 4.0 0.00 0.00 0.00 44 999.7
20200927100536 57 235 0.0 5.0 0.00 0.00 0.00 43 999.7
20200927095631 57 211 0.0 5.0 0.00 0.00 0.00 43 999.8
20200927094731 57 223 3.0 5.0 0.00 0.00 0.00 42 999.7
20200927093837 57 228 4.0 7.0 0.00 0.00 0.00 42 999.7
20200927092940 58 220 3.0 6.0 0.00 0.00 0.00 41 999.7
20200927092037 58 207 2.0 4.0 0.00 0.00 0.00 43 999.7
20200927091133 57 213 1.0 6.0 0.00 0.00 0.00 45 999.7
20200927090230 56 207 3.0 4.0 0.00 0.00 0.00 46 999.8
20200927085330 57 258 1.0 5.0 0.00 0.00 0.00 43 999.7
20200927084430 57 310 2.0 4.0 0.00 0.00 0.00 42 999.6
20200927083534 55 7 0.0 4.0 0.00 0.00 0.00 49 999.4
20200927082630 53 337 0.0 4.0 0.00 0.00 0.00 48 999.3
20200927081730 53 0 0.0 0.0 0.00 0.00 0.00 52 999.5
20200927080831 51 0 0.0 0.0 0.00 0.00 0.00 54 999.4
20200927075933 51 191 0.0 2.0 0.00 0.00 0.00 54 999.3
20200927075031 50 217 0.0 4.0 0.00 0.00 0.00 56 999.2
20200927074132 52 208 2.0 4.0 0.00 0.00 0.00 55 998.8
20200927073231 53 256 0.0 4.0 0.00 0.00 0.00 50 998.8
20200927072331 53 251 2.0 4.0 0.00 0.00 0.00 42 998.6
20200927071431 53 281 0.0 2.0 0.00 0.00 0.00 49 998.4
20200927070531 53 216 0.0 2.0 0.00 0.00 0.00 49 998.4
20200927065630 53 135 1.0 2.0 0.00 0.00 0.00 52 998.2
20200927064731 51 0 0.0 0.0 0.00 0.00 0.00 62 998.1
20200927063831 46 3 0.0 4.0 0.00 0.00 0.00 67 997.9
20200927062931 44 8 3.0 4.0 0.00 0.00 0.00 69 997.8
20200927062030 44 2 2.0 4.0 0.00 0.00 0.00 71 997.6
20200927061134 43 3 0.0 2.0 0.00 0.00 0.00 76 997.3
20200927060231 39 1 0.0 2.0 0.00 0.00 0.00 80 997.5
20200927055331 38 1 0.0 2.0 0.00 0.00 0.00 81 997.3
20200927054431 38 1 1.0 3.0 0.00 0.00 0.00 79 996.9